Granada, Spain

1:56 AM CEST en Abril 23, 2018 (GMT +0200)
Granada

Tiempo Historia de LEGR - Enero, 2018

Change the Weather History Date:

Domingo, Enero 14, 2018

  Actual Average Record
Temperature  
Temperatura media 39 ° F -  
Temperatura máxima 45 ° F 56 ° F 66 ° F (2015)
Temperatura mínima 33 ° F 32 ° F 23 ° F (2003)
Degree Days  
Grados día de calefacción 26    
Moisture  
Punto de rocío 38 ° F    
Average Humidity 94    
Maximum Humidity 100    
Minimum Humidity 80    
Precipitación  
Precipitación 0.16 pul - - ()
Presión al nivel del mar  
Presión al nivel del mar 30.12 pul    
Viento  
Velocidad del viento 1 mph ()    
Velocidad máxima del viento 9 mph    
Max Gust Speed -    
Visibilidad 5.1 Millas    
Eventos Niebla , Lluvia    
Averages and records for this station are not official NWS values.
T = Trace of Precipitation, MM = Missing Value Source: Averaged Metar Reports

Daily Weather History Graph

Daily Weather History Graph

Search for Another Location

Airport or City:

Astronomía

Jan. 14, 2018 Salida Puesta
Hora real 8:28 AM CET 6:20 PM CET
Crepúsculo civil 7:59 AM CET 6:48 PM CET
Crepúsculo náutico 7:27 AM CET 7:20 PM CET
Crepúsculo astronómico 6:56 AM CET 7:52 PM CET
Luna 6:11 AM CET (1/14) 4:27 PM CET (1/14)
Horas de luz 10h 49m
Horas de luz
9h 52m
Creciente menguante, 6% of the Moon is Illuminated
Ene 14
Creciente menguante
Ene 17
Nueva
Ene 24
Cuarto creciente
Ene 31
Luna llena
Feb 7
Cuarto menguante

Hourly Weather History & Observations

Hora (CET) Temp. Vientos helados Punto de rocío Humedad Presión Visibilidad Wind Dir Velocidad del viento Velocidad de ráfagas Precip Eventos Condiciones
12:00 AM 37.4 ° F - 37.4 ° F 100% 30.18 pul 6.2 mi Variable 1.2 mph - N/A   Nublado
12:30 AM 37.4 ° F - 35.6 ° F 93% 30.18 pul 5.6 mi Variable 2.3 mph - N/A   Muy nublado
1:00 AM 35.6 ° F - 35.6 ° F 100% 30.18 pul 5.6 mi Sur 2.3 mph - N/A   Nubes dispersas
1:30 AM 35.6 ° F - 35.6 ° F 100% 30.15 pul 5.0 mi Variable 1.2 mph - N/A   Nublado
2:00 AM 36 ° F - 35 ° F 94% 30.24 pul 3 mi Sin viento Sin viento - -   Neblina
2:00 AM 35.6 ° F - 35.6 ° F 100% 30.15 pul 4.3 mi Sin viento Sin viento - N/A   Muy nublado
2:30 AM 33.8 ° F - 33.8 ° F 100% 30.15 pul 1.2 mi Norte 2.3 mph - N/A   Parcialmente nublado
3:00 AM 33.8 ° F - 33.8 ° F 100% 30.15 pul 0.2 mi Sur 2.3 mph - N/A Niebla Niebla
3:30 AM 33.8 ° F - 33.8 ° F 100% 30.15 pul 3.7 mi Sin viento Sin viento - N/A   Parcialmente nublado
4:00 AM 33 ° F - 33 ° F 99% 30.24 pul 3 mi SSE 2.3 mph - - Niebla Niebla
4:00 AM 33.8 ° F - 32.0 ° F 93% 30.15 pul 3.7 mi Variable 1.2 mph - N/A   Nubes dispersas
4:30 AM 33.8 ° F - 33.8 ° F 100% 30.15 pul 3.7 mi Variable 1.2 mph - N/A   Parcialmente nublado
5:00 AM 33 ° F - 33 ° F 97% 30.23 pul 2 mi Sin viento Sin viento - -   Neblina
5:00 AM 32.0 ° F - 32.0 ° F 100% 30.12 pul 3.7 mi Sin viento Sin viento - N/A   Muy nublado
5:30 AM 33.8 ° F - 33.8 ° F 100% 30.12 pul 1.7 mi Variable 1.2 mph - N/A   Nublado
6:00 AM 33.8 ° F - 33.8 ° F 100% 30.12 pul 0.1 mi Variable 1.2 mph - N/A Niebla Niebla
6:30 AM 33.8 ° F - 33.8 ° F 100% 30.12 pul 1.6 mi Sin viento Sin viento - N/A   Muy nublado
7:00 AM 36 ° F - 36 ° F 98% 30.20 pul 2 mi SSE 1.2 mph - -   Neblina
7:00 AM 35.6 ° F - 35.6 ° F 100% 30.12 pul 1.9 mi Sin viento Sin viento - N/A   Muy nublado
7:30 AM 35.6 ° F - 35.6 ° F 100% 30.12 pul 1.9 mi NNE 2.3 mph - N/A   Muy nublado
8:00 AM 35.6 ° F - 35.6 ° F 100% 30.12 pul 2.2 mi Sin viento Sin viento - N/A   Muy nublado
8:30 AM 35.6 ° F - 35.6 ° F 100% 30.12 pul 2.5 mi Sin viento Sin viento - N/A   Muy nublado
9:00 AM 36 ° F - 36 ° F 100% 30.20 pul 2 mi SO 1.2 mph - -   Neblina
9:00 AM 35.6 ° F - 35.6 ° F 100% 30.12 pul 2.5 mi Sin viento Sin viento - N/A   Muy nublado
9:30 AM 37.4 ° F - 37.4 ° F 100% 30.12 pul 3.1 mi Variable 1.2 mph - N/A   Muy nublado
10:00 AM 39 ° F - 38 ° F 96% 30.19 pul 2 mi Sin viento Sin viento - -   Neblina
10:00 AM 39.2 ° F - 37.4 ° F 93% 30.12 pul 3.1 mi Sin viento Sin viento - N/A   Muy nublado
10:30 AM 39.2 ° F - 39.2 ° F 100% 30.12 pul 4.3 mi Sin viento Sin viento - N/A   Muy nublado
11:00 AM 41 ° F - 39 ° F 90% 30.18 pul 5 mi Sin viento Sin viento - - Lluvia Llovizna débil
11:00 AM 41.0 ° F - 39.2 ° F 93% 30.12 pul 4.3 mi Sin viento Sin viento - N/A   Muy nublado
11:30 AM 42.8 ° F - 41.0 ° F 93% 30.12 pul 5.0 mi Sin viento Sin viento - N/A   Muy nublado
12:00 PM 43 ° F - 40 ° F 85% 30.16 pul 6 mi Sin viento Sin viento - - Lluvia Lluvia débil
12:00 PM 42.8 ° F - 39.2 ° F 87% 30.12 pul 5.0 mi Sin viento Sin viento - N/A   Llovizna débil
12:30 PM 44.6 ° F - 41.0 ° F 87% 30.09 pul 5.0 mi Sin viento Sin viento - N/A   Muy nublado
1:00 PM 45 ° F - 41 ° F 82% 30.12 pul 4 mi Sin viento Sin viento - - Lluvia Lluvia débil
1:00 PM 44.6 ° F - 41.0 ° F 87% 30.09 pul 5.0 mi Sin viento Sin viento - N/A Lluvia Lluvia débil
1:30 PM 44.6 ° F - 41.0 ° F 87% 30.06 pul 5.6 mi Sin viento Sin viento - N/A Lluvia Lluvia débil
2:00 PM 46 ° F - 42 ° F 80% 30.09 pul 7 mi Sin viento Sin viento - - Lluvia Lluvia débil
2:00 PM 44.6 ° F - 41.0 ° F 87% 30.04 pul 6.2 mi Sin viento Sin viento - N/A Lluvia Lluvia débil
2:30 PM 44.6 ° F - 41.0 ° F 87% 30.04 pul 3.7 mi Sin viento Sin viento - N/A Lluvia Lluvia
3:00 PM 44 ° F - 42 ° F 89% 30.09 pul 5 mi ONO 9.2 mph - - Lluvia Lluvia
3:00 PM 42.8 ° F 38.6 ° F 41.0 ° F 93% 30.04 pul 3.7 mi ONO 6.9 mph - N/A Lluvia Lluvia
3:30 PM 42.8 ° F 39.3 ° F 41.0 ° F 93% 30.06 pul 5.6 mi Oeste 5.8 mph - N/A Lluvia Lluvia débil
4:00 PM 43 ° F - 41 ° F 89% 30.08 pul 7 mi SO 1.2 mph - - Lluvia Lluvia débil
4:00 PM 42.8 ° F - 41.0 ° F 93% 30.04 pul 6.2 mi Variable 1.2 mph - N/A Lluvia Lluvia débil
4:30 PM 42.8 ° F 41.1 ° F 41.0 ° F 93% 30.04 pul 6.2 mi Oeste 3.5 mph - N/A   Muy nublado
5:00 PM 43 ° F - 40 ° F 83% 30.09 pul 19 mi ONO 2.3 mph - -   Despejado
5:00 PM 42.8 ° F - 39.2 ° F 87% 30.04 pul 6.2 mi Variable 2.3 mph - N/A   Muy nublado
5:30 PM 42.8 ° F - 39.2 ° F 87% 30.04 pul 6.2 mi Variable 1.2 mph - N/A   Muy nublado
6:00 PM 43 ° F - 39 ° F 81% 30.11 pul 19 mi Sin viento Sin viento - -   Despejado
6:00 PM 42.8 ° F - 39.2 ° F 87% 30.06 pul 6.2 mi Sin viento Sin viento - N/A   Muy nublado
6:30 PM 42.8 ° F - 39.2 ° F 87% 30.06 pul 6.2 mi Sin viento Sin viento - N/A   Muy nublado
7:00 PM 42 ° F - 40 ° F 91% 30.12 pul 5 mi Norte 1.2 mph - - Lluvia Lluvia débil
7:00 PM 41.0 ° F - 39.2 ° F 93% 30.06 pul 5.6 mi Sin viento Sin viento - N/A Lluvia Lluvia débil
7:30 PM 41.0 ° F - 41.0 ° F 100% 30.06 pul 6.2 mi Sin viento Sin viento - N/A   Muy nublado
8:00 PM 42 ° F - 40 ° F 92% 30.14 pul 6 mi Sin viento Sin viento - - Lluvia Lluvia débil
8:00 PM 41.0 ° F - 39.2 ° F 93% 30.09 pul 6.2 mi Sin viento Sin viento - N/A Lluvia Lluvia débil
8:30 PM 41.0 ° F 39.0 ° F 39.2 ° F 93% 30.09 pul 6.2 mi SO 3.5 mph - N/A   Nubes dispersas
9:00 PM 41 ° F - 40 ° F 93% 30.16 pul 19 mi OSO 1.2 mph - -   Despejado
9:00 PM 41.0 ° F - 39.2 ° F 93% 30.09 pul 6.2 mi OSO 1.2 mph - N/A   Nubes dispersas
9:30 PM 41.0 ° F - 39.2 ° F 93% 30.12 pul 6.2 mi Sin viento Sin viento - N/A   Muy nublado
10:00 PM 41.0 ° F - 39.2 ° F 93% 30.12 pul 6.2 mi Sin viento Sin viento - N/A   Muy nublado
10:30 PM 39.2 ° F - 39.2 ° F 100% 30.12 pul 6.2 mi Sin viento Sin viento - N/A   Muy nublado
11:00 PM 40 ° F - 39 ° F 94% 30.19 pul 9 mi Sin viento Sin viento - -   Neblina
11:00 PM 39.2 ° F - 39.2 ° F 100% 30.12 pul 6.2 mi Sin viento Sin viento - N/A   Muy nublado
11:30 PM 37.4 ° F - 37.4 ° F 100% 30.12 pul - Variable 1.2 mph - N/A   Despejado